Regional Weather Roundup
Issued by NWS

Home | Current Version | Previous Version | Graphics & Text | Print | Product List | Glossary On
Versions: 1 2 3 4 5 6 7 8 9 10 11 12 13 14 15 16 17 18 19 20 21 22 23 24 25 26 27 28 29 30 31 32 33 34 35 36 37 38 39 40 41 42 43 44 45 46 47 48 49 50
171
ASUS43 KBIS 230610
RWRND

NORTH DAKOTA REGIONAL WEATHER ROUNDUP
NATIONAL WEATHER SERVICE BISMARCK ND
100 AM CDT SAT SEP 23 2017

NOTE: "FAIR" INDICATES FEW OR NO CLOUDS BELOW 12,000 FEET WITH NO
SIGNIFICANT WEATHER AND/OR OBSTRUCTIONS TO VISIBILITY.


NDZ001>003-009>011-017-230700-
NORTHWEST NORTH DAKOTA

CITY           SKY/WX    TMP DP  RH WIND       PRES   REMARKS
WILLISTON      CLOUDY    45  42  89 NW10      30.07R
6HR MIN TEMP:  44; 6HR MAX TEMP:  47;

MINOT          CLOUDY    48  45  89 NW12      29.99F
MINOT AFB      CLOUDY    47  45  93 N9        29.98F
$$

NDZ018>021-031>035-040>046-230700-
SOUTHWEST NORTH DAKOTA

CITY           SKY/WX    TMP DP  RH WIND       PRES   REMARKS
BISMARCK       CLOUDY    50  44  80 NW6       30.05R
6HR MIN TEMP:  49; 6HR MAX TEMP:  50;

GARRISON         N/A     47  44  90 N12       29.99R
6HR MIN TEMP:  47; 6HR MAX TEMP:  48;

HETTINGER ARPT LGT RAIN  44  41  89 NE9       30.03R
$$

NDZ004>008-012>016-024-026-027-054-230700-
NORTHEAST NORTH DAKOTA

CITY           SKY/WX    TMP DP  RH WIND       PRES   REMARKS
GRAND FORKS    CLOUDY    54  51  90 N14G26    29.82R
GRND FRKS AFB  CLOUDY    53  50  90 N18G28    29.81R
DEVILS LAKE    CLOUDY    50  46  86 N17G24    29.91R
$$

NDZ022-023-025-028>030-036>039-047>053-230700-
SOUTHEAST NORTH DAKOTA

CITY           SKY/WX    TMP DP  RH WIND       PRES   REMARKS
FARGO          CLOUDY    57  53  86 NW14      29.83R
6HR MIN TEMP:  57; 6HR MAX TEMP:  87;

JAMESTOWN      CLOUDY    51  48  89 NW12      29.91R
$$





USA.gov is the U.S. government's official web portal to all federal, state and local government web resources and services.